Location: Val-d'Or
(48.1170°N, 77.7670°W)
Time: 06:13:45
(UTC-04:00)

ISS - Pass Details

Date: 24 May 2018
Orbit: 402 x 407 km, 51.6° (Epoch: 24 May)

Event Time Altitude Azimuth Distance (km) Brightness Sun altitude
Rises 21:25:46 0° 234° (SW) 2,312 0.2 -5.0°
Reaches altitude 10° 21:27:51 10° 230° (SW) 1,455 -0.9 -5.3°
Maximum altitude 21:31:03 57° 151° (SSE) 479 -3.8 -5.7°
Drops below altitude 10° 21:34:17 10° 72° (ENE) 1,459 -1.3 -6.1°
Sets 21:36:22 0° 68° (ENE) 2,321 -0.3 -6.3°
